Погода в Бузэу

Румыния     45°09′01″N   26°49′10″E
темп.,
°C
ветер,
м/с
пор.,
м/с
влажн.,
%
обл.,
%
осадки,
мм/ч
давл.,
гПа
погр.,
м
11 мая, вт
вт1100:00+9ююз22752 0.0 102225
03:00+8зюз11770 0.0 102212
06:00+7зсз11770 0.0 102110
09:00+13юв11530 0.0 1021332
12:00+17юв32370 0.0 1020931
15:00+19ю32380 0.0 10181281
18:00+19ююв22410 0.0 10161297
21:00+14ююв11560 0.0 101611
12 мая, ср
ср1200:00+12ссз22620 0.0 101611
03:00+11сз22660 0.0 101412
06:00+10ссз22660 0.0 101310
09:00+16в22523 0.0 1012362
12:00+19в33466 0.0 10111478
15:00+21юв334217 0.0 10092052
18:00+18всв6866100 0.1 1008407
21:00+14всв5109096 1.4 1009491
13 мая, чт
чт1300:00+12всв359291 0.1 1010302
03:00+10всв229299 0.1 100919
06:00+10св2392100 1.0 1008139
09:00+10ссв3693100 4.3 1008276
12:00+11с2394100 4.1 1008332
15:00+14зсз238140 4.1 1007524
18:00+17юз246429 0.0 10061116
21:00+13юз228494 0.0 100722
14 мая, пт
пт1400:00+11зсз228699 0.0 100711
03:00+12зсз4989100 0.6 1007274
06:00+11юз2290100 0.1 100833
09:00+15зюз237186 0.1 1008394
12:00+19ююз3259100 0.4 10081011
15:00+20зюз335730 3.0 10091144
18:00+20з56565 0.3 1009954
21:00+15зюз33731 0.3 101024
15 мая, сб
сб1500:00+13зсз32793 0.0 101124
03:00+12зсз2278100 0.0 101225
06:00+11сз227772 0.0 101218
09:00+17ююв11635 0.0 1013385
12:00+21юз46470 0.0 10131612
15:00+22юз674325 0.0 10121930
18:00+21ююз454996 0.0 10111550
21:00+16зюз1161100 0.0 101111